FW8676 Weather Reports


Display with metric or nautical units.
time (UTC)temp
F
wind
direction
speed
MPH
gust
MPH
rain 1hr
in
rain 24hr
in
rain mn
in
humidity
%
barometer
mb
20260506231556 68 176 3.0 11.0 0.00 0.02 0.02 80 1008.9
20260506224602 69 212 1.0 10.0 0.00 0.02 0.02 79 1008.8
20260506223101 69 227 5.0 10.0 0.00 0.02 0.02 79 1009.0
20260506221557 69 206 4.0 16.0 0.00 0.02 0.02 78 1008.9
20260506220054 70 177 3.0 9.0 0.00 0.02 0.02 78 1008.7
20260506214559 70 159 3.0 9.0 0.00 0.02 0.02 77 1008.7
20260506213101 69 173 4.0 11.0 0.00 0.02 0.02 78 1008.5
20260506211554 69 222 4.0 12.0 0.00 0.02 0.02 77 1008.5
20260506210055 69 154 2.0 10.0 0.00 0.02 0.02 78 1008.5
20260506204556 69 199 2.0 14.0 0.00 0.02 0.02 78 1008.3
20260506203056 70 154 2.0 15.0 0.00 0.02 0.02 77 1008.2
20260506201556 69 195 5.0 21.0 0.00 0.02 0.02 78 1008.2
20260506200059 69 166 2.0 10.0 0.00 0.02 0.02 79 1008.3
20260506194556 68 165 5.0 14.0 0.00 0.02 0.02 80 1008.5
20260506193054 67 191 2.0 13.0 0.00 0.02 0.02 80 1008.7
20260506191552 67 231 5.0 13.0 0.00 0.02 0.02 81 1009.0
20260506190054 66 159 4.0 11.0 0.00 0.02 0.02 81 1008.9
20260506184554 66 164 5.0 15.0 0.00 0.02 0.02 81 1009.2
20260506183054 66 172 3.0 13.0 0.00 0.02 0.02 82 1009.2
20260506181555 66 174 5.0 19.0 0.00 0.02 0.02 82 1009.1
20260506180051 66 190 4.0 19.0 0.00 0.02 0.02 83 1009.3
20260506174557 66 205 4.0 12.0 0.00 0.02 0.02 83 1009.3
20260506173123 65 164 1.0 10.0 0.00 0.02 0.02 85 1009.5
20260506171602 64 191 2.0 11.0 0.00 0.02 0.02 86 1009.6
20260506170052 64 164 4.0 14.0 0.01 0.02 0.02 86 1009.8
20260506164556 64 191 3.0 13.0 0.01 0.02 0.02 87 1009.9
20260506163106 64 222 5.0 14.0 0.02 0.02 0.02 86 1010.3
20260506161622 64 179 1.0 12.0 0.02 0.02 0.02 88 1010.4
20260506160108 64 177 3.0 15.0 0.01 0.01 0.01 85 1010.6
20260506154600 65 168 4.0 10.0 0.01 0.01 0.01 82 1011.1
20260506153057 65 118 3.0 10.0 0.00 0.00 0.00 80 1011.1
20260506151555 66 171 3.0 20.0 0.00 0.00 0.00 77 1010.7
20260506150052 68 175 5.0 12.0 0.00 0.00 0.00 71 1010.8
20260506144555 68 228 4.0 11.0 0.00 0.00 0.00 70 1010.8
20260506143054 68 173 4.0 16.0 0.00 0.00 0.00 69 1011.0
20260506141552 68 226 5.0 13.0 0.00 0.00 0.00 68 1011.1
20260506140052 68 180 5.0 13.0 0.00 0.00 0.00 68 1011.0
20260506134552 69 168 4.0 18.0 0.00 0.00 0.00 66 1010.7
20260506133053 69 181 5.0 12.0 0.00 0.00 0.00 67 1010.7
20260506131602 68 196 5.0 13.0 0.00 0.00 0.00 68 1010.8
20260506130112 67 165 3.0 13.0 0.00 0.00 0.00 69 1010.6
20260506124600 67 184 2.0 14.0 0.00 0.00 0.00 70 1010.8
20260506123054 67 199 4.0 13.0 0.00 0.00 0.00 71 1010.9
20260506121554 66 166 3.0 11.0 0.00 0.00 0.00 72 1010.9
20260506120105 66 172 3.0 13.0 0.00 0.00 0.00 74 1010.8
20260506114556 65 212 3.0 14.0 0.00 0.00 0.00 75 1010.7
20260506113058 65 161 5.0 10.0 0.00 0.00 0.00 76 1010.6
20260506111557 65 166 6.0 13.0 0.00 0.00 0.00 76 1010.6
20260506104557 65 150 4.0 14.0 0.00 0.00 0.00 76 1010.5
20260506103100 65 172 4.0 16.0 0.00 0.00 0.00 77 1010.6
20260506101600 64 217 3.0 16.0 0.00 0.00 0.00 77 1010.6
20260506100109 64 128 5.0 12.0 0.00 0.00 0.00 78 1010.4
20260506094553 64 222 5.0 16.0 0.00 0.00 0.00 77 1010.5
20260506093053 64 0 3.0 13.0 0.00 0.00 0.00 77 1010.6
20260506091551 65 177 5.0 13.0 0.00 0.00 0.00 77 1010.4
20260506090056 65 127 3.0 11.0 0.00 0.00 0.00 77 1010.3
20260506084621 65 178 5.0 16.0 0.00 0.00 0.00 77 1010.5
20260506083056 66 157 4.0 10.0 0.00 0.00 0.00 76 1010.4
20260506081557 66 191 3.0 12.0 0.00 0.00 0.00 76 1010.6
20260506073100 67 172 3.0 12.0 0.00 0.00 0.00 75 1010.7
20260506071559 67 191 3.0 19.0 0.00 0.00 0.00 74 1010.6
20260506061554 68 159 3.0 20.0 0.00 0.00 0.00 72 1011.0
20260506044702 69 158 1.0 10.0 0.00 0.00 0.00 70 1011.5
20260506043101 69 198 4.0 12.0 0.00 0.00 0.00 69 1011.5
20260506041602 69 174 2.0 8.0 0.00 0.00 0.00 68 1011.5
20260506040053 69 181 1.0 7.0 0.00 0.00 0.00 67 1011.5
20260506034626 70 172 2.0 10.0 0.00 0.00 0.00 64 1011.4
20260506033101 70 179 3.0 10.0 0.00 0.00 0.00 63 1011.5
20260506031553 71 199 3.0 12.0 0.00 0.00 0.00 62 1011.3
20260506030056 71 156 2.0 10.0 0.00 0.00 0.00 61 1011.5
20260506024600 71 196 2.0 11.0 0.00 0.00 0.00 61 1011.6
20260506023111 71 182 1.0 6.0 0.00 0.00 0.00 61 1011.7
20260506021600 71 0 1.0 9.0 0.00 0.00 0.00 59 1011.6
20260506020059 72 162 2.0 7.0 0.00 0.00 0.00 59 1011.5
20260506014559 72 186 3.0 10.0 0.00 0.00 0.00 57 1011.3
20260506013100 73 183 4.0 13.0 0.00 0.00 0.00 56 1011.1
20260506011626 73 149 3.0 10.0 0.00 0.00 0.00 55 1011.0
20260506004632 74 126 2.0 13.0 0.00 0.00 0.00 53 1010.6
20260506003112 74 93 3.0 11.0 0.00 0.00 0.00 52 1010.5
20260506001559 74 0 3.0 11.0 0.00 0.00 0.00 51 1010.2
20260506000101 75 168 3.0 10.0 0.00 0.00 0.00 49 1009.9
20260505234632 76 184 2.0 14.0 0.00 0.00 0.00 47 1010.1
20260505233110 76 136 3.0 11.0 0.00 0.00 0.00 46 1010.0